(175900) = 1999 XM217 = 2002 LU34

Discovered at Kitt Peak on 1999-12-13 by Spacewatch.

Orbit

Orbit type: Main Belt

Note: WebGL enabled browser required.

epoch2024-03-31.0
epoch JD2460400.5
perihelion date2022-01-21.88991
perihelion JD2459601.38991
argument of perihelion (°)233.96284
ascending node (°)105.15806
inclination (°)15.25968
eccentricity0.2787055
perihelion distance (AU)1.7758327
Tisserand w.r.t. Jupiter3.4
ΔV w.r.t. Earth (km/sec)9.5
semimajor axis (AU)2.4620077
mean anomaly (°)203.88081
mean daily motion (°/day)0.25513480
aphelion distance (AU)3.148
period (years)3.86
P-vector [x]0.90681632
P-vector [y]-0.24916960
P-vector [z]-0.33999806
Q-vector [x]0.33637673
Q-vector [y]0.91385074
Q-vector [z]0.22743685
absolute magnitude16.43
phase slope0.15
uncertainty0
referenceMPEC 2024-F28
observations used505
oppositions16
arc length (days)8862
first opposition used1999
last opposition used2024
residual rms (arc-secs)0.75
perturbers coarse indicatorM-v
perturbers precise indicator003Ek
first observation date used1999-12-13.0
last observation date used2024-03-18.0
computer nameMPCLINUX
JD of orbit computation2456966.757590
perihelion JD uncertainty (days)4.4695E-05
argument of perihelion uncertainty (°)2.4963E-05
ascending node uncertainty (°)2.2495E-05
inclination uncertainty (°)5.7188E-06
eccentricity uncertainty 5.9570E-08
perihelion distance uncertainty (AU)1.4235E-07
Minimum Orbit Intersection Distances (in AU)
for orbit epoch: 2460400.5, reference: E2024-G02
Mercury1.37781
Venus1.06179
Earth0.80813
Mars0.44836
Jupiter2.31899
Saturn6.15347
Uranus15.3711
Neptune27.274

Observations

517 total observations over interval: 1999 12 13.36668 – 2024 03 18.341558
These data are available for download (format description).

Date (UT) J2000 RA J2000 Dec Magn Location Ref
1999 12 13.36668 08 08 27.72 +20 38 08.0 21.4 V 691 – Steward Observatory, Kitt Peak-Spacewatch MPS 9156
1999 12 13.40076 08 08 26.43 +20 38 21.4 21.4 V 691 – Steward Observatory, Kitt Peak-Spacewatch MPS 9156
1999 12 13.42348 08 08 25.56 +20 38 30.5 21.1 V 691 – Steward Observatory, Kitt Peak-Spacewatch MPS 9156
1999 12 16.36436 08 06 31.70 +20 58 13.5 20.9 V 691 – Steward Observatory, Kitt Peak-Spacewatch MPS 9156
1999 12 16.38729 08 06 30.73 +20 58 22.9 20.9 V 691 – Steward Observatory, Kitt Peak-Spacewatch MPS 9156
1999 12 16.41125 08 06 29.71 +20 58 33.0 20.7 V 691 – Steward Observatory, Kitt Peak-Spacewatch MPS 9156
1999 12 17.40772 08 05 47.81 +21 05 25.2 20.9 V 691 – Steward Observatory, Kitt Peak-Spacewatch MPS 27770
1999 12 17.43024 08 05 46.84 +21 05 34.6 21.1 V 691 – Steward Observatory, Kitt Peak-Spacewatch MPS 27770
1999 12 17.45374 08 05 45.80 +21 05 44.2 21.0 V 691 – Steward Observatory, Kitt Peak-Spacewatch MPS 27770
2002 06 08.38613 21 10 09.87 -17 34 12.9 19.4   704 – Lincoln Laboratory ETS, New Mexico MPS 57894
2002 06 08.41411 21 10 11.48 -17 34 27.2 19.8   704 – Lincoln Laboratory ETS, New Mexico MPS 57894
2002 06 08.42804 21 10 12.25 -17 34 32.6 19.5   704 – Lincoln Laboratory ETS, New Mexico MPS 57894
2002 06 12.37965 21 13 48.05 -18 05 48.0 18.4   704 – Lincoln Laboratory ETS, New Mexico MPS 57894
2002 06 12.40695 21 13 49.36 -18 06 01.3 19.0   704 – Lincoln Laboratory ETS, New Mexico MPS 57894
2002 06 12.43447 21 13 50.77 -18 06 16.0 19.4   704 – Lincoln Laboratory ETS, New Mexico MPS 57894
2002 06 14.55321 21 15 37.23 -18 24 59.2 19.7   608 – Haleakala-AMOS MPS 57894
2002 06 14.56368 21 15 37.75 -18 25 04.8 19.6   608 – Haleakala-AMOS MPS 57894
2002 06 14.57412 21 15 38.20 -18 25 10.3 19.4   608 – Haleakala-AMOS MPS 57894
2002 06 18.38542 21 18 33.10 -19 02 29.1 19.3   704 – Lincoln Laboratory ETS, New Mexico MPS 57894
2002 06 18.39900 21 18 33.58 -19 02 37.2 19.6   704 – Lincoln Laboratory ETS, New Mexico MPS 57894
2002 06 18.41238 21 18 34.08 -19 02 45.7 19.3   704 – Lincoln Laboratory ETS, New Mexico MPS 57894
2002 06 26.34584 21 23 24.14 -20 35 45.1 18.8   644 – Palomar Mountain/NEAT MPS 58794
2002 06 26.35730 21 23 24.46 -20 35 53.8 19.1   644 – Palomar Mountain/NEAT MPS 58794
2002 06 26.37209 21 23 24.82 -20 36 05.9 18.8   644 – Palomar Mountain/NEAT MPS 58794
2002 07 05.38164 21 26 40.12 -22 47 05.7 18.2   704 – Lincoln Laboratory ETS, New Mexico MPS 58794
2002 07 05.39476 21 26 40.13 -22 47 17.3 18.7   704 – Lincoln Laboratory ETS, New Mexico MPS 58794
2002 07 05.40786 21 26 40.34 -22 47 30.7 18.3   704 – Lincoln Laboratory ETS, New Mexico MPS 58794
2002 07 05.42098 21 26 40.49 -22 47 43.0 18.5   704 – Lincoln Laboratory ETS, New Mexico MPS 58794
2002 07 15.43281 21 27 15.26 -25 41 26.5 17.5   644 – Palomar Mountain/NEAT MPS 58794
2002 07 15.45691 21 27 15.01 -25 41 53.1 18.3   644 – Palomar Mountain/NEAT MPS 58794
2002 07 15.47803 21 27 14.81 -25 42 16.3 17.8   644 – Palomar Mountain/NEAT MPS 58794
2004 01 28.36785 08 24 55.41 +26 51 52.7 20.6 V 691 – Steward Observatory, Kitt Peak-Spacewatch MPS 97601
2004 01 28.39606 08 24 53.59 +26 52 04.5 20.7 V 691 – Steward Observatory, Kitt Peak-Spacewatch MPS 97601
2004 01 28.42467 08 24 51.72 +26 52 16.3 21.3 V 691 – Steward Observatory, Kitt Peak-Spacewatch MPS 97601
2006 06 04.77662 23 02 10.24 -14 02 11.9 20.0 V E12 – Siding Spring Survey MPS 173550
2006 06 04.78789 23 02 11.68 -14 02 11.6 20.2 V E12 – Siding Spring Survey MPS 173550
2006 06 04.79927 23 02 13.05 -14 02 11.5 19.6 V E12 – Siding Spring Survey MPS 173550
2006 06 04.81067 23 02 14.38 -14 02 10.9 19.4 V E12 – Siding Spring Survey MPS 173550
2006 07 30.75132 00 37 10.45 -18 28 25.9 18.2 V E12 – Siding Spring Survey MPS 175404
2006 07 30.76490 00 37 11.31 -18 28 35.0 18.5 V E12 – Siding Spring Survey MPS 175404
2006 07 30.77806 00 37 12.18 -18 28 44.1 18.7 V E12 – Siding Spring Survey MPS 175404
2006 09 16.68047 00 50 33.07 -29 01 07.5 17.9 V E12 – Siding Spring Survey MPS 179064
2006 09 16.69108 00 50 32.71 -29 01 13.8 17.9 V E12 – Siding Spring Survey MPS 179064
2006 09 16.70173 00 50 32.28 -29 01 19.2 17.9 V E12 – Siding Spring Survey MPS 179064
2006 09 16.71241 00 50 31.88 -29 01 25.2 17.8 V E12 – Siding Spring Survey MPS 179064
2006 10 02.57536 00 39 35.67 -30 26 50.8 18.1 V E12 – Siding Spring Survey MPS 182423
2006 10 02.58448 00 39 35.24 -30 26 51.8 18.0 V E12 – Siding Spring Survey MPS 182423
2006 10 02.59343 00 39 34.81 -30 26 52.2 18.0 V E12 – Siding Spring Survey MPS 182423
2006 10 02.60229 00 39 34.38 -30 26 52.4 18.2 V E12 – Siding Spring Survey MPS 182423
2006 10 13.51032 00 32 08.88 -30 06 41.0 18.5 V E12 – Siding Spring Survey MPS 182401
2006 10 13.51779 00 32 08.59 -30 06 39.0 18.2 V E12 – Siding Spring Survey MPS 182401
2006 10 13.52535 00 32 08.23 -30 06 36.9 18.0 V E12 – Siding Spring Survey MPS 182401
2006 10 13.53238 00 32 08.01 -30 06 34.7 18.3 V E12 – Siding Spring Survey MPS 182401
2006 10 28.42068 00 25 58.08 -28 04 43.5 18.4 V E12 – Siding Spring Survey MPS 185207
2006 10 28.42933 00 25 57.93 -28 04 37.9 19.1 V E12 – Siding Spring Survey MPS 185207
2006 10 28.43803 00 25 57.82 -28 04 32.3 18.9 V E12 – Siding Spring Survey MPS 185207
2006 10 28.44715 00 25 57.68 -28 04 26.2 18.7 V E12 – Siding Spring Survey MPS 185207
2006 11 18.18016 00 28 25.28 -23 11 04.5 19.4 V 703 – Catalina Sky Survey MPS 188307
2006 11 18.18735 00 28 25.50 -23 10 56.6 19.1 V 703 – Catalina Sky Survey MPS 188307
2006 11 18.19453 00 28 25.60 -23 10 49.4 19.8 V 703 – Catalina Sky Survey MPS 188307
2006 11 18.20170 00 28 25.86 -23 10 42.7 19.4 V 703 – Catalina Sky Survey MPS 188307
2007 12 18.39288 09 44 29.97 +20 54 37.5 21.3 V G96 – Mt. Lemmon Survey MPS 231700
2007 12 18.39963 09 44 29.94 +20 54 40.0 21.0 V G96 – Mt. Lemmon Survey MPS 231700
2007 12 18.40643 09 44 29.86 +20 54 42.3 21.1 V G96 – Mt. Lemmon Survey MPS 231700
2007 12 18.41323 09 44 29.83 +20 54 45.1 20.9 V G96 – Mt. Lemmon Survey MPS 231700
2008 02 13.20719 09 03 50.02 +28 20 01.5   291 – LPL/Spacewatch II MPS 237349
2008 02 13.21330 09 03 49.75 +28 20 03.9   291 – LPL/Spacewatch II MPS 237349
2008 02 13.21940 09 03 49.43 +28 20 06.0   291 – LPL/Spacewatch II MPS 237349
2008 02 13.22738 09 03 48.89 +28 20 09.0   291 – LPL/Spacewatch II MPS 237349
2008 02 13.23376 09 03 48.49 +28 20 11.5   291 – LPL/Spacewatch II MPS 237349
2008 02 13.23988 09 03 48.11 +28 20 13.5   291 – LPL/Spacewatch II MPS 237349
2010 07 20.527648 02 09 14.10 -05 09 40.8   C51 – WISE MPS 341533
2010 07 20.659951 02 09 29.25 -05 09 33.4   C51 – WISE MPS 341533
2010 07 20.792256 02 09 44.40 -05 09 26.7   C51 – WISE MPS 341533
2010 07 20.924559 02 09 59.51 -05 09 20.8   C51 – WISE MPS 341533
2010 07 21.056863 02 10 14.58 -05 09 14.7   C51 – WISE MPS 341533
2010 07 21.189167 02 10 29.64 -05 09 09.8   C51 – WISE MPS 341533
2010 07 21.255382 02 10 37.25 -05 09 05.2   C51 – WISE MPS 341533
2010 07 21.321471 02 10 44.73 -05 09 02.9   C51 – WISE MPS 341533
2010 07 21.38769 02 10 52.26 -05 09 00.2   C51 – WISE MPS 341533
2010 07 21.453774 02 10 59.74 -05 08 57.4   C51 – WISE MPS 341533
2010 07 21.519862 02 11 07.284 -05 08 54.49   C51 – WISE MPS 903307
2010 07 21.519990 02 11 07.289 -05 08 54.60   C51 – WISE MPS 903307
2010 07 21.586078 02 11 14.782 -05 08 51.97   C51 – WISE MPS 903307
2010 07 21.652167 02 11 22.291 -05 08 49.52   C51 – WISE MPS 903307
2010 07 21.652294 02 11 22.342 -05 08 48.48   C51 – WISE MPS 903307
2010 07 21.718382 02 11 29.810 -05 08 46.03   C51 – WISE MPS 903307
2010 07 21.784470 02 11 37.334 -05 08 43.91   C51 – WISE MPS 903307
2010 07 21.916774 02 11 52.306 -05 08 38.94   C51 – WISE MPS 903307
2010 07 22.049078 02 12 07.318 -05 08 33.90   C51 – WISE MPS 903307
2010 07 22.181381 02 12 22.250 -05 08 28.90   C51 – WISE MPS 903307
2010 07 22.313685 02 12 37.188 -05 08 24.22   C51 – WISE MPS 903307
2010 07 22.445988 02 12 52.056 -05 08 20.11   C51 – WISE MPS 903308
2010 07 22.578294 02 13 07.008 -05 08 15.72   C51 – WISE MPS 903308
2010 08 08.39478 02 42 08.81 -05 23 15.2 19.4   704 – Lincoln Laboratory ETS, New Mexico MPS 344684
2010 08 08.40646 02 42 09.88 -05 23 17.3 19.6   704 – Lincoln Laboratory ETS, New Mexico MPS 344684
